Weather History for Winona, MN

Change the Weather History Date:

Wednesday, September 18, 2013

  Actual Average Record
Temperature  
Mean Temperature 69 °F -  
Max Temperature 78 °F 72 °F 87 °F (1998)
Min Temperature 60 °F 52 °F 33 °F (2012)
Cooling Degree Days 4    
Growing Degree Days 19 (Base 50)    
Moisture  
Dew Point 63 °F    
Average Humidity 82    
Maximum Humidity 94    
Minimum Humidity 61    
Precipitation  
Precipitation 0.00 in - - ()
Sea Level Pressure  
Sea Level Pressure 29.87 in    
Wind  
Wind Speed 5 mph (SSE)    
Max Wind Speed 9 mph    
Max Gust Speed -    
Visibility 8 miles    
Events Thunderstorm    
Averages and records for this station are not official NWS values.
T = Trace of Precipitation, MM = Missing Value Source: NWS Daily Summary

Daily Weather History Graph

Daily Weather History Graph

Search for Another Location

Airport:

Trip Planner

Search our weather history database for the weather conditions in past years. The results will help you decide how hot, cold, wet, or windy it might be!

Date:

Astronomy

Sep. 18, 2013 Rise Set
Actual Time 6:49 AM CDT 7:11 PM CDT
Civil Twilight 6:20 AM CDT 7:40 PM CDT
Nautical Twilight 5:46 AM CDT 8:14 PM CDT
Astronomical Twilight 5:11 AM CDT 8:49 PM CDT
Moon 6:33 PM CDT (9/18) 5:52 AM CDT (9/18)
Length of Visible Light 13h 19m
Length of Day
12h 21m
Waxing Gibbous, 99% of the Moon is Illuminated
Sep 18
Waxing Gibbous
Sep 19
Full
Sep 26
Last Quarter
Oct 4
New
Oct 11
First Quarter

Hourly Weather History & Observations

Time (CDT) Temp. Dew Point Humidity Pressure Visibility Wind Dir Wind Speed Gust Speed Precip Events Conditions
12:16 AM 60.8 °F 57.2 °F 88% 30.00 in 10.0 mi SSE 3.5 mph - N/A   Overcast
12:36 AM 60.8 °F 57.2 °F 88% 29.99 in 10.0 mi SSE 4.6 mph - N/A   Overcast
12:56 AM 60.8 °F 57.2 °F 88% 29.99 in 10.0 mi SSE 3.5 mph - N/A   Overcast
1:16 AM 60.8 °F 57.2 °F 88% 29.99 in 10.0 mi SSE 8.1 mph - N/A   Overcast
1:36 AM 60.8 °F 57.2 °F 88% 29.98 in 7.0 mi SSE 6.9 mph - N/A   Overcast
1:56 AM 62.6 °F 59.0 °F 88% 29.98 in 7.0 mi SSE 5.8 mph - N/A   Overcast
2:16 AM 62.6 °F 59.0 °F 88% 29.97 in 7.0 mi SSE 4.6 mph - N/A   Overcast
2:36 AM 62.6 °F 59.0 °F 88% 29.97 in 7.0 mi South 3.5 mph - N/A   Overcast
2:56 AM 62.6 °F 59.0 °F 88% 29.96 in 7.0 mi SSE 5.8 mph - N/A Thunderstorm Overcast
3:16 AM 62.6 °F 59.0 °F 88% 29.95 in 7.0 mi South 4.6 mph - N/A Thunderstorm Overcast
3:36 AM 62.6 °F 59.0 °F 88% 29.94 in 7.0 mi SSE 8.1 mph - N/A   Overcast
3:56 AM 62.6 °F 59.0 °F 88% 29.94 in 7.0 mi South 3.5 mph - N/A   Overcast
4:16 AM 62.6 °F 59.0 °F 88% 29.94 in 7.0 mi Calm Calm - N/A   Overcast
4:36 AM 62.6 °F 59.0 °F 88% 29.93 in 7.0 mi SSE 3.5 mph - N/A Thunderstorm Overcast
4:56 AM 62.6 °F 59.0 °F 88% 29.93 in 5.0 mi SSE 5.8 mph - N/A   Overcast
5:16 AM 62.6 °F 60.8 °F 94% 29.92 in 7.0 mi SE 5.8 mph - N/A   Overcast
5:36 AM 62.6 °F 60.8 °F 94% 29.92 in 7.0 mi SSE 5.8 mph - N/A   Overcast
5:56 AM 62.6 °F 60.8 °F 94% 29.93 in 7.0 mi SSE 3.5 mph - N/A   Overcast
6:16 AM 62.6 °F 60.8 °F 94% 29.92 in 7.0 mi SSE 4.6 mph - N/A   Overcast
6:36 AM 62.6 °F 60.8 °F 94% 29.92 in 7.0 mi SSE 8.1 mph - N/A   Overcast
6:56 AM 62.6 °F 60.8 °F 94% 29.92 in 7.0 mi SSE 5.8 mph - N/A   Overcast
7:16 AM 62.6 °F 60.8 °F 94% 29.92 in 7.0 mi SSE 6.9 mph - N/A   Overcast
7:36 AM 62.6 °F 60.8 °F 94% 29.92 in 5.0 mi South 3.5 mph - N/A Thunderstorm Overcast
7:56 AM 66.2 °F 62.6 °F 88% 29.93 in 5.0 mi SSE 4.6 mph - N/A Thunderstorm Overcast
8:16 AM 66.2 °F 62.6 °F 88% 29.92 in 5.0 mi SE 6.9 mph - N/A Thunderstorm Overcast
8:36 AM 66.2 °F 62.6 °F 88% 29.92 in 5.0 mi South 4.6 mph - N/A   Overcast
8:56 AM 66.2 °F 62.6 °F 88% 29.90 in 5.0 mi SSE 3.5 mph - N/A   Overcast
9:15 AM 66.2 °F 62.6 °F 88% 29.89 in 5.0 mi SSE 4.6 mph - N/A   Overcast
9:36 AM 68.0 °F 64.4 °F 88% 29.89 in 5.0 mi SSE 4.6 mph - N/A   Overcast
9:56 AM 69.8 °F 64.4 °F 83% 29.89 in 5.0 mi SSE 3.5 mph - N/A   Haze
10:16 AM 69.8 °F 64.4 °F 83% 29.89 in 7.0 mi SSE 4.6 mph - N/A   Overcast
10:36 AM 69.8 °F 62.6 °F 78% 29.89 in 7.0 mi SSE 3.5 mph - N/A   Overcast
10:56 AM 69.8 °F 62.6 °F 78% 29.89 in 7.0 mi SSE 5.8 mph - N/A   Overcast
11:15 AM 69.8 °F 62.6 °F 78% 29.89 in 7.0 mi SE 6.9 mph - N/A   Overcast
11:36 AM 69.8 °F 62.6 °F 78% 29.89 in 7.0 mi SE 6.9 mph - N/A   Overcast
11:56 AM 69.8 °F 62.6 °F 78% 29.89 in 7.0 mi SSE 6.9 mph - N/A   Overcast
12:16 PM 69.8 °F 62.6 °F 78% 29.89 in 7.0 mi SSE 3.5 mph - N/A   Overcast
12:36 PM 69.8 °F 62.6 °F 78% 29.89 in 7.0 mi SSE 6.9 mph - N/A   Overcast
12:56 PM 69.8 °F 62.6 °F 78% 29.88 in 7.0 mi SSE 3.5 mph - N/A   Overcast
1:16 PM 71.6 °F 62.6 °F 73% 29.87 in 7.0 mi SSE 4.6 mph - N/A   Overcast
1:36 PM 73.4 °F 64.4 °F 73% 29.85 in 10.0 mi SSE 6.9 mph - N/A   Overcast
1:56 PM 73.4 °F 64.4 °F 73% 29.84 in 10.0 mi South 3.5 mph - N/A   Overcast
2:16 PM 73.4 °F 64.4 °F 73% 29.83 in 10.0 mi SSE 4.6 mph - N/A   Overcast
2:36 PM 73.4 °F 64.4 °F 73% 29.82 in 10.0 mi South 5.8 mph - N/A   Overcast
2:55 PM 73.4 °F 64.4 °F 73% 29.82 in 10.0 mi South 3.5 mph - N/A   Overcast
3:16 PM 77.0 °F 64.4 °F 65% 29.81 in 10.0 mi SSE 6.9 mph - N/A   Overcast
3:36 PM 78.8 °F 64.4 °F 61% 29.80 in 10.0 mi South 5.8 mph - N/A   Mostly Cloudy
3:56 PM 78.8 °F 66.2 °F 65% 29.80 in 10.0 mi South 6.9 mph - N/A   Scattered Clouds
4:15 PM 77.0 °F 64.4 °F 65% 29.80 in 10.0 mi SSW 5.8 mph - N/A   Scattered Clouds
4:36 PM 78.8 °F 64.4 °F 61% 29.79 in 10.0 mi SSW 4.6 mph - N/A   Scattered Clouds
4:56 PM 78.8 °F 64.4 °F 61% 29.79 in 10.0 mi SSW 6.9 mph - N/A   Scattered Clouds
5:16 PM 78.8 °F 64.4 °F 61% 29.79 in 10.0 mi SSE 9.2 mph - N/A   Scattered Clouds
5:35 PM 78.8 °F 66.2 °F 65% 29.78 in 10.0 mi South 6.9 mph - N/A   Scattered Clouds
5:56 PM 78.8 °F 68.0 °F 69% 29.78 in 10.0 mi South 4.6 mph - N/A   Clear
6:16 PM 77.0 °F 66.2 °F 69% 29.78 in 10.0 mi SSE 5.8 mph - N/A   Clear
6:36 PM 77.0 °F 66.2 °F 69% 29.78 in 10.0 mi SSE 6.9 mph - N/A   Clear
6:56 PM 77.0 °F 68.0 °F 74% 29.78 in 10.0 mi SE 5.8 mph - N/A   Clear
7:16 PM 73.4 °F 66.2 °F 78% 29.78 in 10.0 mi SE 4.6 mph - N/A   Clear
7:36 PM 73.4 °F 68.0 °F 83% 29.78 in 10.0 mi SE 4.6 mph - N/A   Clear
7:56 PM 71.6 °F 66.2 °F 83% 29.79 in 10.0 mi Calm Calm - N/A   Clear
8:16 PM 71.6 °F 66.2 °F 83% 29.79 in 10.0 mi SE 4.6 mph - N/A   Clear
8:36 PM 71.6 °F 66.2 °F 83% 29.79 in 10.0 mi SSE 4.6 mph - N/A   Clear
8:56 PM 71.6 °F 68.0 °F 88% 29.79 in 10.0 mi SSE 3.5 mph - N/A   Clear
9:16 PM 71.6 °F 68.0 °F 88% 29.79 in 10.0 mi SE 3.5 mph - N/A   Clear
9:36 PM 71.6 °F 68.0 °F 88% 29.79 in 10.0 mi Calm Calm - N/A   Clear
9:56 PM 69.8 °F 68.0 °F 94% 29.79 in 10.0 mi SE 3.5 mph - N/A   Clear
10:16 PM 73.4 °F 68.0 °F 83% 29.79 in 10.0 mi SSE 6.9 mph - N/A   Clear
10:36 PM 73.4 °F 68.0 °F 83% 29.79 in 10.0 mi SSE 6.9 mph - N/A   Clear
10:56 PM 73.4 °F 68.0 °F 83% 29.78 in 10.0 mi SSE 6.9 mph - N/A   Clear
11:16 PM 73.4 °F 68.0 °F 83% 29.78 in 10.0 mi SE 6.9 mph - N/A   Clear
11:36 PM 73.4 °F 66.2 °F 78% 29.78 in 10.0 mi Calm Calm - N/A   Clear
11:56 PM 75.2 °F 68.0 °F 78% 29.77 in 10.0 mi South 4.6 mph - N/A   Clear